[[{"header":{"parameterUnit":"m.s-1","parameterCategory":1,"la1":30.2991,"la2":30.254,"lo1":-89.0895,"lo2":-89.0444,"dy":0.0017,"dx":0.0017,"nx":28,"ny":28,"refTime":"2025-03-11T09:00:00:Z","depth":0,"parameterNumber":2,"parameterNumberName":"U-component_of_WINDS"},"data":[0,0,0,0,0,0,0,0,0,0,0,0,0,0,0,0,0,0,0,0,0,0,0,0,0,0,0,0,0,0,0,0,0,0,0,0,0,0,0,0,0,0,0,0,0,0,0,0,0,0,0,0,0,0,0,0,0,0,-1.1551,-1.1552,0,-1.1556,-1.1556,-1.1556,-1.1573,-1.1574,-1.1574,-1.1575,-1.1577,-1.1577,-1.1577,0,0,0,0,0,0,0,0,0,0,0,0,0,-1.1554,-1.1554,-1.1551,-1.1552,-1.1552,-1.1556,-1.1556,-1.1556,-1.1573,-1.1574,-1.1574,-1.1575,-1.1577,-1.1577,-1.1577,0,0,0,0,0,0,0,0,0,0,0,0,0,-1.1555,-1.1554,-1.1551,-1.1561,-1.1562,-1.1556,-1.1556,-1.1556,-1.1573,-1.1574,-1.1574,-1.1575,-1.1578,-1.1577,-1.1577,-1.1562,0,0,-1.1575,-1.1575,0,0,0,0,0,0,0,0,-1.1555,-1.1555,-1.1559,-1.156,-1.1561,-1.1565,-1.1558,-1.1558,-1.1573,-1.1569,-1.1575,-1.1575,-1.1573,-1.1573,-1.1572,-1.1563,-1.1563,-1.1575,-1.1575,-1.1575,-1.1575,0,0,0,0,0,0,0,-1.1555,-1.1555,-1.1553,-1.1559,-1.156,-1.1564,-1.1564,-1.1558,-1.1567,-1.1569,-1.157,-1.1571,-1.1573,-1.1573,-1.1572,-1.1563,-1.1575,-1.1575,-1.1575,-1.1575,-1.154,-1.1539,0,0,0,0,0,0,-1.1554,-1.1555,-1.1553,-1.1553,-1.156,-1.1563,-1.1564,-1.1563,-1.1567,-1.1569,-1.157,-1.1572,-1.1573,-1.1573,-1.1573,-1.1555,-1.1575,-1.1575,-1.1574,-1.154,-1.154,-1.1539,0,0,0,0,0,0,-1.1554,-1.1554,-1.1553,-1.1555,-1.1555,-1.1562,-1.1561,-1.1563,-1.1562,-1.1568,-1.157,-1.1568,-1.1573,-1.1573,-1.1565,-1.1555,-1.1574,-1.1574,-1.1541,-1.154,-1.1539,-1.152,0,0,0,0,0,0,-1.1554,-1.1554,-1.1549,-1.1554,-1.1555,-1.1546,-1.1561,-1.1562,-1.1562,-1.1563,-1.1567,-1.1568,-1.1574,-1.1565,-1.1564,-1.1555,-1.1574,-1.1542,-1.1541,-1.1539,-1.1521,-1.1518,-1.1516,0,0,0,0,0,-1.1554,-1.1543,-1.1549,-1.1548,-1.1549,-1.1545,-1.1545,-1.1553,-1.1561,-1.1556,-1.1559,-1.1568,-1.1557,-1.1564,-1.1563,-1.1554,-1.1543,-1.1541,-1.154,-1.1523,-1.1519,-1.1516,0,0,0,0,0,0,-1.1536,-1.1544,-1.155,-1.1541,-1.1542,-1.1548,-1.1542,-1.1549,-1.1548,-1.1549,-1.1558,-1.1559,-1.1549,-1.155,-1.1559,-1.1539,-1.1551,-1.1549,-1.1538,-1.1535,-1.1532,-1.1531,-1.1573,0,0,0,0,0,-1.1531,-1.1528,-1.1535,-1.1526,-1.1527,-1.1534,-1.1533,-1.1539,-1.154,-1.154,-1.1544,-1.1544,-1.154,-1.1538,-1.1535,-1.1522,-1.1522,-1.1515,-1.1512,-1.151,-1.1508,-1.1499,-1.1495,-1.1534,-1.1534,-1.1534,0,0,-1.1521,-1.1525,-1.1522,-1.1523,-1.1524,-1.152,-1.1534,-1.1529,-1.1526,-1.154,-1.1531,-1.1534,-1.1535,-1.1523,-1.1518,-1.1524,-1.1497,-1.1508,-1.1506,-1.1505,-1.1497,-1.1493,-1.149,-1.1533,-1.1533,-1.1533,0,0,-1.1499,-1.1503,-1.1495,-1.1496,-1.1499,-1.1504,-1.1502,-1.1506,-1.1508,-1.1501,-1.151,-1.1506,-1.15,-1.15,-1.1499,-1.1476,-1.1483,-1.1475,-1.146,-1.1451,-1.1448,-1.1446,-1.1436,-1.1433,-1.1473,-1.1473,-1.1473,0,-1.1486,-1.148,-1.149,-1.1484,-1.1483,-1.1496,-1.1487,-1.1488,-1.1489,-1.1488,-1.1495,-1.1487,-1.1488,-1.1476,-1.1471,-1.147,-1.1467,-1.1474,-1.1448,-1.1446,-1.1443,-1.1434,-1.1431,-1.1472,-1.1472,-1.1472,-1.1472,0,-1.1463,-1.1459,-1.1452,-1.1453,-1.1452,-1.1445,-1.1452,-1.1449,-1.1455,-1.1459,-1.145,-1.1452,-1.1449,-1.1447,-1.1453,-1.1435,-1.1439,-1.1447,-1.1458,-1.1438,-1.143,-1.1426,-1.147,-1.1471,-1.1471,-1.1471,0,0,-1.143,-1.1436,-1.1433,-1.1433,-1.1437,-1.1433,-1.1426,-1.1424,-1.1421,-1.1421,-1.1414,-1.1408,-1.1415,-1.1414,-1.142,-1.1413,-1.1392,-1.1421,-1.1422,-1.1415,-1.1371,-1.1364,-1.136,-1.1398,-1.1397,-1.1396,-1.1371,0,-1.1408,-1.1397,-1.1405,-1.1392,-1.1388,-1.1399,-1.1393,-1.1393,-1.1396,-1.1392,-1.1395,-1.1391,-1.1401,-1.14,-1.1394,-1.1396,-1.1384,-1.1399,-1.139,-1.1389,-1.1388,-1.1356,-1.1349,-1.1325,-1.1368,-1.1367,-1.1367,0,-1.1382,-1.1381,-1.1368,-1.1371,-1.1369,-1.1363,-1.1361,-1.1358,-1.1358,-1.136,-1.1359,-1.1366,-1.1358,-1.137,-1.1358,-1.1367,-1.1364,-1.1365,-1.1364,-1.1362,-1.1376,-1.1352,-1.1317,-1.1313,-1.1362,-1.1362,-1.1363,0,-1.1358,-1.1353,-1.1344,-1.1344,-1.1348,-1.1343,-1.1344,-1.1345,-1.1343,-1.1341,-1.1339,-1.1336,-1.1334,-1.133,-1.1336,-1.1344,-1.1322,-1.1335,-1.1322,-1.1322,-1.1316,-1.1316,-1.1279,-1.1316,-1.1317,-1.1317,-1.1317,0,-1.1332,-1.1323,-1.1333,-1.1328,-1.1317,-1.1326,-1.1315,-1.1317,-1.1318,-1.1312,-1.1322,-1.1316,-1.1324,-1.1318,-1.1322,-1.131,-1.1309,-1.131,-1.1311,-1.1309,-1.1308,-1.1306,-1.1307,-1.1316,-1.1316,-1.1316,-1.1316,0,-1.1303,-1.131,-1.13,-1.1305,-1.1305,-1.1297,-1.13,-1.1295,-1.1298,-1.129,-1.1289,-1.1294,-1.1288,-1.1293,-1.1287,-1.1289,-1.1273,-1.1277,-1.1273,-1.1274,-1.126,-1.1261,-1.1219,-1.1213,-1.1255,-1.1255,-1.1255,0,-1.1286,-1.1279,-1.1283,-1.128,-1.128,-1.1275,-1.1273,-1.1281,-1.1278,-1.1277,-1.1271,-1.1265,-1.1261,-1.125,-1.1253,-1.1247,-1.125,-1.1236,-1.125,-1.1247,-1.1248,-1.1248,-1.1247,-1.1233,-1.1232,-1.1232,-1.1232,0,-1.1254,-1.1257,-1.1254,-1.1252,-1.1248,-1.1247,-1.1246,-1.1242,-1.125,-1.1246,-1.124,-1.1237,-1.123,-1.1224,-1.1219,-1.1219,-1.1226,-1.1227,-1.1224,-1.1221,-1.1218,-1.1217,-1.1264,-1.1228,-1.1228,-1.1229,-1.1229,-1.1229,-1.1229,-1.1223,-1.1225,-1.122,-1.122,-1.1219,-1.1213,-1.1216,-1.1211,-1.1207,-1.1211,-1.1203,-1.1202,-1.1197,-1.1196,-1.1189,-1.1194,-1.119,-1.1188,-1.1187,-1.1184,-1.122,-1.1188,-1.1188,-1.1188,-1.1188,-1.1188,0,-1.1197,-1.1198,-1.1194,-1.1192,-1.1188,-1.1196,-1.1195,-1.119,-1.1184,-1.1183,-1.1178,-1.117,-1.1164,-1.1166,-1.1159,-1.1153,-1.1156,-1.1151,-1.1151,-1.115,-1.118,-1.1183,-1.1149,-1.1149,-1.1149,-1.1149,-1.1149,-1.1149,-1.118,-1.1169,-1.1173,-1.1162,-1.1163,-1.1156,-1.1154,-1.1152,-1.1151,-1.1142,-1.1137,-1.1138,-1.1138,-1.1131,-1.1125,-1.1126,-1.1122,-1.1116,-1.1117,-1.1145,-1.1149,-1.1152,-1.1155,-1.1116,-1.1116,-1.1088,-1.1088,-1.1088]},{"header":{"parameterUnit":"m.s-1","parameterCategory":1,"la1":30.2991,"la2":30.254,"lo1":-89.0895,"lo2":-89.0444,"dy":0.0017,"dx":0.0017,"nx":28,"ny":28,"refTime":"2025-03-11T09:00:00:Z","depth":0,"parameterNumber":3,"parameterNumberName":"V-component_of_WINDS"},"data":[0,0,0,0,0,0,0,0,0,0,0,0,0,0,0,0,0,0,0,0,0,0,0,0,0,0,0,0,0,0,0,0,0,0,0,0,0,0,0,0,0,0,0,0,0,0,0,0,0,0,0,0,0,0,0,0,0,0,3.411,3.4111,0,3.4241,3.4242,3.4244,3.4267,3.4265,3.4264,3.4263,3.4399,3.4403,3.4408,0,0,0,0,0,0,0,0,0,0,0,0,0,3.3881,3.3885,3.411,3.4111,3.4113,3.4241,3.4242,3.4244,3.4267,3.4265,3.4264,3.4263,3.4397,3.4403,3.4408,0,0,0,0,0,0,0,0,0,0,0,0,0,3.3993,3.3886,3.4109,3.414,3.4144,3.424,3.4242,3.4245,3.4267,3.4265,3.4264,3.4262,3.4395,3.4402,3.4409,3.4485,0,0,3.443,3.4433,0,0,0,0,0,0,0,0,3.3986,3.4001,3.4133,3.4138,3.4142,3.4236,3.4211,3.4325,3.4267,3.422,3.4263,3.4261,3.4346,3.4357,3.4385,3.4491,3.4497,3.4431,3.4435,3.4438,3.444,0,0,0,0,0,0,0,3.3979,3.3996,3.4162,3.4135,3.4141,3.4147,3.4161,3.4233,3.4291,3.4224,3.4226,3.4241,3.4348,3.4378,3.4388,3.4499,3.4431,3.4437,3.4441,3.4444,3.4677,3.4679,0,0,0,0,0,0,3.3965,3.3989,3.4157,3.4165,3.4059,3.4153,3.4168,3.4207,3.429,3.4301,3.4243,3.4242,3.4367,3.438,3.4393,3.449,3.4438,3.4444,3.4448,3.4675,3.4678,3.468,0,0,0,0,0,0,3.396,3.398,3.4152,3.4078,3.41,3.4158,3.4202,3.4211,3.4241,3.4304,3.4314,3.4263,3.4366,3.4383,3.4463,3.4494,3.4448,3.4454,3.4673,3.4676,3.4679,3.4681,0,0,0,0,0,0,3.3954,3.3978,3.4007,3.4078,3.4104,3.4218,3.4204,3.4215,3.4253,3.4253,3.4326,3.4336,3.4366,3.4452,3.4469,3.4503,3.4459,3.467,3.4674,3.4678,3.4679,3.4684,3.4689,0,0,0,0,0,3.3945,3.4002,3.4008,3.4028,3.4141,3.422,3.4235,3.4268,3.4255,3.4285,3.4326,3.4334,3.4488,3.446,3.448,3.4516,3.4668,3.4673,3.4677,3.4677,3.4683,3.4689,0,0,0,0,0,0,3.3933,3.4012,3.402,3.4101,3.4154,3.4224,3.4263,3.4274,3.4332,3.4329,3.4369,3.4385,3.4463,3.4497,3.4464,3.4595,3.4577,3.4586,3.457,3.4577,3.4582,3.4572,3.4465,0,0,0,0,0,3.3939,3.3996,3.4063,3.4128,3.4154,3.4204,3.4239,3.4261,3.4317,3.4339,3.4386,3.4441,3.4502,3.4541,3.46,3.4684,3.4701,3.4719,3.4724,3.4728,3.4735,3.4784,3.4794,3.4695,3.4695,3.4695,0,0,3.3954,3.4004,3.4038,3.4127,3.417,3.4229,3.4222,3.4285,3.4329,3.4349,3.4427,3.4463,3.4527,3.4609,3.4648,3.464,3.4766,3.4733,3.4736,3.4742,3.479,3.4799,3.4807,3.4698,3.4697,3.4697,0,0,3.4011,3.4054,3.4114,3.4158,3.4224,3.4257,3.4271,3.434,3.4365,3.4444,3.4461,3.4514,3.4618,3.4664,3.47,3.4777,3.4787,3.4795,3.4821,3.4869,3.4877,3.4884,3.4913,3.4923,3.4802,3.4802,3.4802,0,3.402,3.4109,3.4144,3.4206,3.4246,3.4266,3.4329,3.437,3.4451,3.4479,3.4469,3.4602,3.4646,3.474,3.4759,3.4787,3.4807,3.4787,3.4873,3.488,3.4887,3.4916,3.4926,3.4802,3.4802,3.4802,3.4802,0,3.4119,3.4181,3.4222,3.4301,3.4345,3.4407,3.4451,3.4492,3.451,3.4544,3.4626,3.468,3.4752,3.4775,3.4793,3.4873,3.4867,3.4864,3.4847,3.4897,3.4924,3.4935,3.4803,3.4803,3.4803,3.4803,0,0,3.4171,3.427,3.4284,3.4321,3.4396,3.4445,3.4508,3.4579,3.4614,3.467,3.4726,3.4814,3.4813,3.4854,3.4878,3.4919,3.4979,3.4912,3.4915,3.4924,3.5073,3.5075,3.5087,3.4986,3.4988,3.499,3.5068,0,3.4238,3.4352,3.4385,3.4481,3.454,3.4561,3.4617,3.467,3.4704,3.4759,3.4797,3.486,3.4853,3.4878,3.492,3.4962,3.5009,3.4957,3.5039,3.5042,3.5024,3.5101,3.5103,3.5175,3.5079,3.5081,3.5082,0,3.4331,3.439,3.4492,3.4561,3.4587,3.4636,3.4705,3.4757,3.4818,3.484,3.4887,3.4907,3.4976,3.4955,3.5051,3.5015,3.5051,3.5077,3.5081,3.5091,3.5066,3.5114,3.5198,3.5209,3.5099,3.5097,3.5096,0,3.4361,3.4465,3.454,3.4571,3.4653,3.4688,3.4724,3.4783,3.4824,3.4884,3.4911,3.4978,3.5015,3.5068,3.5106,3.5087,3.52,3.5181,3.5222,3.5221,3.5246,3.5244,3.5338,3.5266,3.5266,3.5266,3.5266,0,3.4433,3.4495,3.4555,3.4602,3.4672,3.4711,3.478,3.4817,3.487,3.4925,3.4947,3.4998,3.5045,3.5104,3.5134,3.5211,3.5227,3.5248,3.5256,3.5247,3.5245,3.5272,3.5268,3.5269,3.5268,3.5268,3.5267,0,3.4479,3.4521,3.4605,3.4676,3.4696,3.4745,3.4807,3.4853,3.4888,3.4958,3.4977,3.5032,3.5102,3.5146,3.5234,3.5255,3.534,3.5345,3.5319,3.5323,3.5362,3.5358,3.5478,3.5496,3.541,3.5411,3.5412,0,3.4523,3.4571,3.4648,3.4686,3.4723,3.4784,3.4826,3.4866,3.4909,3.4983,3.5021,3.5092,3.5152,3.5262,3.5312,3.538,3.5388,3.5425,3.5399,3.5389,3.5391,3.5389,3.5395,3.543,3.5431,3.5431,3.5432,0,3.4597,3.4616,3.4675,3.4743,3.4792,3.4847,3.4902,3.4933,3.4982,3.503,3.5102,3.5147,3.5238,3.531,3.5383,3.5421,3.5436,3.544,3.5453,3.5446,3.5429,3.5441,3.5333,3.5437,3.5437,3.5436,3.5436,3.5436,3.4644,3.4689,3.4751,3.4817,3.4862,3.4914,3.4962,3.5003,3.5063,3.514,3.5161,3.5236,3.5298,3.5398,3.5438,3.5499,3.5494,3.5513,3.5518,3.5522,3.5524,3.5418,3.5512,3.5512,3.5512,3.5512,3.5512,0,3.4721,3.4762,3.4822,3.4899,3.4951,3.496,3.5022,3.5065,3.5131,3.5188,3.5246,3.5329,3.5399,3.5454,3.5526,3.5564,3.5573,3.5582,3.5581,3.559,3.5523,3.5505,3.5574,3.5574,3.5574,3.5574,3.5574,3.5574,3.4767,3.4844,3.4871,3.4971,3.5012,3.5086,3.5121,3.5169,3.5214,3.5306,3.5364,3.54,3.5457,3.5533,3.5598,3.5613,3.5639,3.5647,3.5664,3.5601,3.5594,3.5588,3.5571,3.5652,3.5652,3.5725,3.5726,3.5726]}]]